WetterOnline ( http://www.wetteronline.de )

Wetter aktuell Herdecke

Aktuelles Wetter: Lüdenscheid (392m)

6-stündlich | Neueste Meldungen
Ortszeit Temperatur Wetter
Sa, 21.04. 8:00 13.3° C wolkig
Sa, 21.04. 2:00 15.4° C wolkig
Fr, 20.04. 20:00 22.3° C wolkig
Fr, 20.04. 14:00 24.8° C wolkig
Fr, 20.04. 8:00 13.5° C wolkig
Fr, 20.04. 2:00 15.5° C wolkenlos
Do, 19.04. 20:00 23.8° C leicht bewölkt
Do, 19.04. 14:00 24.8° C leicht bewölkt
Ortszeit Temperatur Wetter
Sa, 21.04. 9:30 17.3° C wolkenlos
Sa, 21.04. 9:20 17.3° C wolkenlos
Sa, 21.04. 9:10 16.3° C fast wolkenlos
Sa, 21.04. 9:00 15.2° C leicht bewölkt
Sa, 21.04. 8:50 15.2° C wolkig
Sa, 21.04. 8:40 14.7° C leicht bewölkt
Sa, 21.04. 8:30 14.7° C wolkig
Sa, 21.04. 8:00 13.3° C wolkig
Sa, 21.04. 7:30 13.2° C fast wolkenlos
Sa, 21.04. 7:00 12.0° C leicht bewölkt
Sa, 21.04. 6:30 11.5° C bedeckt
Ortszeit Relative Feuchte Sichtweite
Sa, 21.04. 8:00 83% 5.0 km
Sa, 21.04. 2:00 70% 13 km
Fr, 20.04. 20:00 41% 40 km
Fr, 20.04. 14:00 36% 30 km
Fr, 20.04. 8:00 59% 45 km
Fr, 20.04. 2:00 48% 55 km
Do, 19.04. 20:00 22% 70 km
Do, 19.04. 14:00 27% 40 km
Ortszeit Relative Feuchte Sichtweite
Sa, 21.04. 9:30 67% 6 km
Sa, 21.04. 9:20 67% -
Sa, 21.04. 9:10 71% -
Sa, 21.04. 9:00 73% 6 km
Sa, 21.04. 8:50 73% -
Sa, 21.04. 8:40 73% -
Sa, 21.04. 8:30 76% 6 km
Sa, 21.04. 8:00 83% 5.0 km
Sa, 21.04. 7:30 79% 6 km
Sa, 21.04. 7:00 85% 6 km
Sa, 21.04. 6:30 86% 6 km
Ortszeit Niederschlagsmenge Niederschlagsart
Sa, 21.04. 8:00 0.0 l/m2 in 12 Std. -
Sa, 21.04. 2:00 0.0 l/m2 in 6 Std. -
Fr, 20.04. 20:00 0.0 l/m2 in 12 Std. -
Fr, 20.04. 14:00 0.0 l/m2 in 6 Std. -
Fr, 20.04. 8:00 0.0 l/m2 in 12 Std. -
Fr, 20.04. 2:00 0.0 l/m2 in 6 Std. -
Do, 19.04. 20:00 0.0 l/m2 in 12 Std. -
Do, 19.04. 14:00 0.0 l/m2 in 6 Std. -
Ortszeit Niederschlagsmenge Niederschlagsart
Sa, 21.04. 9:30 0.0 l/m2 in 1 Std. -
Sa, 21.04. 9:20 keine Meldung -
Sa, 21.04. 9:10 keine Meldung -
Sa, 21.04. 9:00 0.0 l/m2 in 1 Std. -
Sa, 21.04. 8:50 keine Meldung -
Sa, 21.04. 8:40 keine Meldung -
Sa, 21.04. 8:30 0.0 l/m2 in 1 Std. -
Sa, 21.04. 8:00 0.0 l/m2 in 1 Std. -
Sa, 21.04. 7:30 0.0 l/m2 in 1 Std. -
Sa, 21.04. 7:00 0.0 l/m2 in 1 Std. -
Sa, 21.04. 6:30 0.0 l/m2 in 1 Std. -
Ortszeit Stärke Spitze Richtung
km/h Bft. km/h Grad Sektor
Sa, 21.04. 8:00 4 1 11 90° O
Sa, 21.04. 2:00 2 1 22 70° O
Fr, 20.04. 20:00 11 2 22 290° W
Fr, 20.04. 14:00 11 2 24 270° W
Fr, 20.04. 8:00 0 0 7 - -
Fr, 20.04. 2:00 4 1 14 70° O
Do, 19.04. 20:00 7 2 30 130° SO
Do, 19.04. 14:00 11 2 32 120° SO
Ortszeit Stärke Spitze Richtung
km/h Bft. km/h Grad Sektor
Sa, 21.04. 9:30 4 1 11 60° NO
Sa, 21.04. 9:20 4 1 - 60° NO
Sa, 21.04. 9:10 6 1 - 100° O
Sa, 21.04. 9:00 6 1 7 80° O
Sa, 21.04. 8:50 6 1 - 80° O
Sa, 21.04. 8:40 4 1 - 100° O
Sa, 21.04. 8:30 4 1 4 90° O
Sa, 21.04. 8:00 4 1 4 90° O
Sa, 21.04. 7:30 2 1 4 240° SW
Sa, 21.04. 7:00 2 1 9 170° S
Sa, 21.04. 6:30 0 0 11 - -
Ortszeit Untergrenze Bedeckung Gattung
total tief tief mittel hoch
Sa, 21.04. 8:00 10500 m 7/8 0/8 - - -
Sa, 21.04. 2:00 9000 m 8/8 0/8 - - -
Fr, 20.04. 20:00 - 8/8 - - - -
Fr, 20.04. 14:00 - 8/8 - - - -
Fr, 20.04. 8:00 10500 m 7/8 0/8 - - -
Fr, 20.04. 2:00 12000 m 0/8 0/8 - - -
Do, 19.04. 20:00 10500 m 8/8 0/8 - - -
Do, 19.04. 14:00 10500 m 8/8 0/8 - - -
Ortszeit Bedeckungsgrad in Achtel und Wolkenuntergrenze
Sa, 21.04. 9:30 keine Wolken
Sa, 21.04. 9:20 keine Wolken
Sa, 21.04. 9:10 2(10500m)
Sa, 21.04. 9:00 7(10500m) 5(10500m)
Sa, 21.04. 8:50 7(10500m)
Sa, 21.04. 8:40 6(10500m)
Sa, 21.04. 8:30 8(10500m) 7(10500m)
Sa, 21.04. 8:00 7(10500m)
Sa, 21.04. 7:30 1(3900m)
Sa, 21.04. 7:00 1(3900m) 3(10500m)
Sa, 21.04. 6:30 1(3000m) 2(3600m) 9(10500m)
Ortszeit Luftdruck NN (hPa) Tendenz (hPa in 3 Std.)
Sa, 21.04. 8:00 1022 + 0,7
Sa, 21.04. 2:00 1022 - 0,1
Fr, 20.04. 20:00 1020 - 0,8
Fr, 20.04. 14:00 1022 - 0,8
Fr, 20.04. 8:00 1025 - 0,2
Fr, 20.04. 2:00 1026 - 0,5
Do, 19.04. 20:00 1025 - 1,0
Do, 19.04. 14:00 1027 - 1,1
Ortszeit Luftdruck NN (hPa) Tendenz (hPa in 3 Std.)
Sa, 21.04. 9:30 1021 + 0,9
Sa, 21.04. 9:20 1021 keine Meldung
Sa, 21.04. 9:10 1021 keine Meldung
Sa, 21.04. 9:00 1022 + 0,9
Sa, 21.04. 8:50 1022 keine Meldung
Sa, 21.04. 8:40 1022 keine Meldung
Sa, 21.04. 8:30 1022 + 0,7
Sa, 21.04. 8:00 1022 + 0,7
Sa, 21.04. 7:30 1021 + 0,3
Sa, 21.04. 7:00 1022 0,0
Sa, 21.04. 6:30 1021 - 0,3
Ortszeit Schneehöhe (cm)
Sa, 21.04. 8:00 0
Sa, 21.04. 2:00 0
Fr, 20.04. 20:00 0
Fr, 20.04. 14:00 0
Fr, 20.04. 8:00 0
Fr, 20.04. 2:00 0
Do, 19.04. 20:00 0
Do, 19.04. 14:00 0
Ortszeit Schneehöhe (cm)
Sa, 21.04. 9:30 0
Sa, 21.04. 9:20 0
Sa, 21.04. 9:10 0
Sa, 21.04. 9:00 0
Sa, 21.04. 8:50 0
Sa, 21.04. 8:40 0
Sa, 21.04. 8:30 0
Sa, 21.04. 8:00 0
Sa, 21.04. 7:30 0
Sa, 21.04. 7:00 0
Sa, 21.04. 6:30 0
Link zu dieser Seite / Seite empfehlen

Das Wetter in ...